Location: Camaret
(48.2753°N, 4.5961°W)
Time: 04:28:40
(UTC+00:00)

NOSS 3-3 (A) - Pass Details

Date: 29 October 2020
Orbit: 819 x 1393 km, 63.4° (Epoch: 29 November)

Event Time Altitude Azimuth Distance (km) Brightness Sun altitude
Rises 18:03:01 0° 189° (S) 3,383 7.1 -10.4°
Reaches altitude 10° 18:05:32 10° 181° (S) 2,494 6.3 -10.8°
Maximum altitude 18:10:44 37° 116° (ESE) 1,409 4.5 -11.7°
Enters shadow 18:16:07 12° 54° (NE) 2,647 5.8 -12.6°
